This is the latest recevied weather packets stored in our database for station/object N7NIP. If no packets are shown the sender has not sent any weather packets the latest 10 day(s).
| Time | Temp. | Humidity | Pressure | Rain* | Wind** | Luminosity | Snow |
|---|---|---|---|---|---|---|---|
| 1778015111 | 15° C | 79% | 1030.4 hPa | 0 mm | - | 217 W/m² | - |
| 1778014808 | 14.44° C | 79% | 1030.8 hPa | 0 mm | - | 218 W/m² | - |
| 1778014506 | 14.44° C | 80% | 1030.5 hPa | 0 mm | - | 217 W/m² | - |
| 1778014203 | 15° C | 79% | 1030.7 hPa | 0 mm | - | 207 W/m² | - |
| 1778013900 | 14.44° C | 80% | 1030.7 hPa | 0 mm | - | 196 W/m² | - |
| 1778013597 | 14.44° C | 80% | 1030.5 hPa | 0 mm | - | 199 W/m² | - |
| 1778013293 | 14.44° C | 80% | 1030.6 hPa | 0 mm | - | 198 W/m² | - |
| 1778012990 | 14.44° C | 80% | 1030.7 hPa | 0 mm | - | 203 W/m² | - |
| 1778012687 | 14.44° C | 80% | 1030.6 hPa | 0 mm | - | 199 W/m² | - |
| 1778012383 | 14.44° C | 79% | 1030.5 hPa | 0 mm | - | 203 W/m² | - |
| 1778012080 | 14.44° C | 81% | 1030.6 hPa | 0 mm | - | 189 W/m² | - |
| 1778011778 | 14.44° C | 80% | 1030.5 hPa | 0 mm | - | 181 W/m² | - |
| 1778011475 | 14.44° C | 81% | 1030.6 hPa | 0 mm | - | 184 W/m² | - |
| 1778011171 | 14.44° C | 79% | 1030.5 hPa | 0 mm | - | 181 W/m² | - |
| 1778010868 | 14.44° C | 79% | 1030.7 hPa | 0 mm | - | 186 W/m² | - |
| 1778010566 | 15° C | 79% | 1030.6 hPa | 0 mm | - | 204 W/m² | - |
| 1778010263 | 14.44° C | 80% | 1030.6 hPa | 0 mm | - | 209 W/m² | - |
| 1778009963 | 15° C | 80% | 1030.4 hPa | 0 mm | - | 208 W/m² | - |
| 1778009661 | 14.44° C | 80% | 1030.7 hPa | 0 mm | - | 213 W/m² | - |
| 1778009358 | 13.89° C | 82% | 1030.4 hPa | 0 mm | - | 199 W/m² | - |
| 1778009056 | 13.89° C | 82% | 1030.6 hPa | 0 mm | - | 189 W/m² | - |
| 1778008754 | 14.44° C | 82% | 1030.4 hPa | 0 mm | - | 177 W/m² | - |
| 1778008452 | 14.44° C | 81% | 1030.5 hPa | 0 mm | - | 175 W/m² | - |
| 1778008148 | 13.89° C | 82% | 1030.6 hPa | 0 mm | - | 159 W/m² | - |
| 1778007844 | 13.89° C | 81% | 1030.6 hPa | 0 mm | - | 156 W/m² | - |
* Rain latest hour (hover to see other rain measurements)
** Current wind speed in m/s (hover to see current wind gust speed)